FW6938 Weather Reports


Display with metric or nautical units.
time (UTC)temp
F
wind
direction
speed
MPH
gust
MPH
rain 1hr
in
rain 24hr
in
rain mn
in
humidity
%
barometer
mb
20210624064537 74 233 2.0 5.0 0.00 0.00 0.00 33 1018.5
20210624063017 73 0 1.0 3.0 0.00 0.00 0.00 37 1018.3
20210624061529 73 269 0.0 3.0 0.00 0.00 0.00 35 1018.3
20210624060018 75 0 0.0 1.0 0.00 0.00 0.00 34 1018.3
20210624054510 76 268 1.0 5.0 0.00 0.00 0.00 32 1018.2
20210624053028 76 168 2.0 9.0 0.00 0.00 0.00 31 1018.3
20210624051512 76 0 1.0 9.0 0.00 0.00 0.00 32 1018.3
20210624050024 76 250 2.0 8.0 0.00 0.00 0.00 32 1018.3
20210624044510 77 0 1.0 9.0 0.00 0.00 0.00 31 1018.5
20210624043010 78 154 2.0 9.0 0.00 0.00 0.00 30 1018.3
20210624041509 78 49 3.0 12.0 0.00 0.00 0.00 29 1017.8
20210624040018 80 157 5.0 15.0 0.00 0.00 0.00 27 1017.4
20210624034529 80 127 5.0 11.0 0.00 0.00 0.00 25 1017.0
20210624033013 82 142 2.0 16.0 0.00 0.00 0.00 23 1016.8
20210624031512 82 140 3.0 10.0 0.00 0.00 0.00 23 1016.2
20210624030017 82 163 2.0 8.0 0.00 0.00 0.00 22 1016.1
20210624024514 83 115 5.0 18.0 0.00 0.00 0.00 23 1015.8
20210624023017 84 211 2.0 9.0 0.00 0.00 0.00 20 1015.4
20210624021522 85 161 3.0 8.0 0.00 0.00 0.00 19 1015.3
20210624020024 87 214 3.0 11.0 0.00 0.00 0.00 17 1015.1
20210624014548 87 202 2.0 7.0 0.00 0.00 0.00 17 1015.0
20210624013020 87 194 3.0 11.0 0.00 0.00 0.00 16 1014.9
20210624011512 88 221 4.0 10.0 0.00 0.00 0.00 17 1014.9
20210624010023 88 0 1.0 7.0 0.00 0.00 0.00 18 1014.8
20210624004531 88 85 2.0 7.0 0.00 0.00 0.00 15 1014.7
20210624003009 90 129 1.0 6.0 0.00 0.00 0.00 16 1014.8
20210624001519 90 256 1.0 4.0 0.00 0.00 0.00 14 1014.9
20210624000014 88 153 0.0 8.0 0.00 0.00 0.00 17 1014.9
20210623234514 88 123 1.0 7.0 0.00 0.00 0.00 19 1014.8
20210623233029 88 240 3.0 9.0 0.00 0.00 0.00 16 1015.1
20210623231531 88 269 2.0 6.0 0.00 0.00 0.00 16 1015.0
20210623230017 91 141 2.0 9.0 0.00 0.00 0.00 15 1015.1
20210623224609 90 248 1.0 9.0 0.00 0.00 0.00 15 1015.2
20210623223035 90 202 2.0 5.0 0.00 0.00 0.00 17 1015.3
20210623221513 88 122 1.0 12.0 0.00 0.00 0.00 18 1015.6
20210623220010 89 130 0.0 5.0 0.00 0.00 0.00 16 1015.6
20210623214515 89 38 1.0 6.0 0.00 0.00 0.00 18 1015.8
20210623213013 87 199 3.0 8.0 0.00 0.00 0.00 16 1015.8
20210623211513 88 5 2.0 9.0 0.00 0.00 0.00 16 1015.9
20210623210036 89 102 2.0 11.0 0.00 0.00 0.00 14 1016.0
20210623204527 90 159 3.0 16.0 0.00 0.00 0.00 16 1016.1
20210623203014 88 178 3.0 10.0 0.00 0.00 0.00 18 1016.3
20210623201513 87 180 3.0 9.0 0.00 0.00 0.00 16 1016.5
20210623200017 88 345 3.0 7.0 0.00 0.00 0.00 18 1016.5
20210623194539 88 180 1.0 7.0 0.00 0.00 0.00 21 1016.5
20210623193046 88 264 2.0 6.0 0.00 0.00 0.00 16 1016.7
20210623191524 87 69 2.0 7.0 0.00 0.00 0.00 17 1016.7
20210623190017 87 176 3.0 9.0 0.00 0.00 0.00 17 1016.8
20210623184523 86 267 2.0 9.0 0.00 0.00 0.00 20 1017.0
20210623183009 87 190 1.0 7.0 0.00 0.00 0.00 20 1017.0
20210623181510 87 67 1.0 6.0 0.00 0.00 0.00 20 1017.3
20210623180015 86 132 1.0 6.0 0.00 0.00 0.00 19 1017.2
20210623174511 85 196 1.0 5.0 0.00 0.00 0.00 19 1017.4
20210623173010 85 266 2.0 7.0 0.00 0.00 0.00 19 1017.3
20210623171515 85 257 1.0 10.0 0.00 0.00 0.00 21 1017.7
20210623170018 85 249 1.0 7.0 0.00 0.00 0.00 21 1017.5
20210623164514 84 146 2.0 8.0 0.00 0.00 0.00 20 1017.5
20210623163012 83 76 0.0 3.0 0.00 0.00 0.00 23 1017.6
20210623161512 82 0 0.0 4.0 0.00 0.00 0.00 28 1017.7
20210623160014 78 0 0.0 2.0 0.00 0.00 0.00 45 1017.7
20210623154521 75 0 0.0 0.0 0.00 0.00 0.00 47 1017.7
20210623153105 73 0 0.0 0.0 0.00 0.00 0.00 44 1017.5
20210623151518 71 0 0.0 0.0 0.00 0.00 0.00 52 1017.5
20210623150009 70 0 0.0 1.0 0.00 0.00 0.00 50 1017.5
20210623144516 70 184 0.0 2.0 0.00 0.00 0.00 43 1017.2
20210623143016 68 0 0.0 1.0 0.00 0.00 0.00 44 1017.3
20210623141535 67 0 0.0 1.0 0.00 0.00 0.00 42 1017.3
20210623140012 66 0 0.0 0.0 0.00 0.00 0.00 45 1017.1
20210623134515 66 0 0.0 3.0 0.00 0.00 0.00 38 1016.9
20210623133046 65 0 0.0 2.0 0.00 0.00 0.00 35 1016.8
20210623131522 65 0 0.0 3.0 0.00 0.00 0.00 30 1016.6
20210623130038 65 0 0.0 1.0 0.00 0.00 0.00 34 1016.6
20210623124531 65 0 0.0 5.0 0.00 0.00 0.00 27 1016.5
20210623123024 63 0 0.0 2.0 0.00 0.00 0.00 26 1016.3
20210623121548 63 178 0.0 3.0 0.00 0.00 0.00 29 1016.1
20210623120023 63 174 0.0 3.0 0.00 0.00 0.00 26 1016.1
20210623114526 64 0 0.0 2.0 0.00 0.00 0.00 23 1016.1
20210623113011 65 0 0.0 2.0 0.00 0.00 0.00 24 1016.0
20210623111559 64 175 1.0 2.0 0.00 0.00 0.00 24 1015.9
20210623110017 65 184 0.0 3.0 0.00 0.00 0.00 19 1015.8
20210623104521 66 126 1.0 3.0 0.00 0.00 0.00 25 1015.8
20210623103023 67 0 0.0 2.0 0.00 0.00 0.00 18 1015.7
20210623101523 69 238 1.0 3.0 0.00 0.00 0.00 19 1015.5
20210623100024 70 92 0.0 2.0 0.00 0.00 0.00 21 1015.3
20210623094513 71 92 0.0 3.0 0.00 0.00 0.00 19 1015.4
20210623093018 71 183 1.0 3.0 0.00 0.00 0.00 15 1015.2
20210623091518 72 269 0.0 3.0 0.00 0.00 0.00 15 1014.9
20210623090021 72 0 0.0 3.0 0.00 0.00 0.00 15 1014.8
20210623084528 74 247 1.0 3.0 0.00 0.00 0.00 15 1014.8
20210623083010 76 278 1.0 5.0 0.00 0.00 0.00 10 1014.5
20210623081531 75 239 1.0 9.0 0.00 0.00 0.00 12 1014.5
20210623080015 73 0 1.0 4.0 0.00 0.00 0.00 14 1014.6
20210623074522 74 0 0.0 4.0 0.00 0.00 0.00 16 1014.5
20210623073019 76 0 0.0 0.0 0.00 0.00 0.00 16 1014.5
20210623071513 79 225 1.0 5.0 0.00 0.00 0.00 12 1014.4
20210623070012 80 202 1.0 9.0 0.00 0.00 0.00 11 1014.3